Regional Weather Roundup
Issued by NWS

Home | Current Version | Previous Version | Graphics & Text | Print | Product List | Glossary On
Versions: 1 2 3 4 5 6 7 8 9 10 11 12 13 14 15 16 17 18 19 20 21 22 23 24 25 26 27 28 29 30 31 32 33 34 35 36 37 38 39 40 41 42 43 44 45 46 47 48 49 50
000
ASUS43 KTOP 052259
RWRKS

WEATHER ROUNDUP FOR KANSAS
NATIONAL WEATHER SERVICE GOODLAND KS
600 PM CDT SUN JUL 05 2015

NOTE:  "FAIR" INDICATES FEW OR NO CLOUDS BELOW 12,000 FEET WITH NO
SIGNIFICANT WEATHER AND/OR OBSTRUCTIONS TO VISIBILITY.

KSZ001>006-013>018-027>032-041>047-060000-
NORTHWEST KANSAS

CITY           SKY/WX    TMP DP  RH WIND       PRES   REMARKS
GOODLAND       PTSUNNY   96  51  21 S17       29.79S
HAYS           SUNNY     99  55  23 S21G29    29.79S HX  97
HILL CITY      MOSUNNY  102  59  24 S20G31    29.74F HX 102
RUSSELL        LGT RAIN  98  60  28 S21G33    29.77F HX  98
$$

KSZ061>065-074>080-084>089-060000-
SOUTHWEST KANSAS

CITY           SKY/WX    TMP DP  RH WIND       PRES   REMARKS
DODGE CITY     MOSUNNY   91  55  29 S24G32    29.85S
ELKHART          N/A     96  58  28 S22         N/A  HX  95
GARDEN CITY    PTSUNNY   93  62  35 S21G29    29.83S
GREAT BEND     SUNNY     95  63  34 S21       29.81S HX  96
LIBERAL        SUNNY     93  61  33 S23G29    29.89S
$$

KSZ066>073-081>083-090>101-060000-
SOUTHEAST KANSAS

CITY           SKY/WX    TMP DP  RH WIND       PRES   REMARKS
CHANUTE        MOSUNNY   91  73  55 S15       29.89F HX  99
COFFEYVILLE    SUNNY     93  74  53 S14       29.88F HX 103
HUTCHINSON     SUNNY     97  63  32 S20       29.82F HX  98
MEDICINE LODGE   N/A     97  61  30 S20G25    29.82F HX  97
NEWTON         MOSUNNY   97  63  32 S15G26    29.87S HX  98
PARSONS        SUNNY     92  75  57 S12G17    29.90F HX 103
WICHITA INTL   MOSUNNY   97  63  32 S18       29.83F HX  98
WICHITA JABRA  MOSUNNY   95  66  38 S15G24    29.84F HX  98
WINFIELD       SUNNY     95  67  39 S18G26    29.87F HX  99
$$

KSZ007>012-019>026-033>040-048>060-102>105-060000-
NORTHEAST KANSAS

CITY           SKY/WX    TMP DP  RH WIND       PRES   REMARKS
CONCORDIA      SUNNY     96  64  34 S20G29    29.78F HX  98
EMPORIA        SUNNY     92  70  48 S17       29.87F HX  97
LAWRENCE       SUNNY     91  74  57 S13       29.87F HX 100
MANHATTAN      MOSUNNY   96  71  44 S14       29.81F HX 103
OLATHE IND     MOSUNNY   88  75  65 SE15      29.90F HX  97
OLATHE EXE     MOSUNNY   87  74  64 S15       29.90F HX  95
SALINA         SUNNY    101  61  26 S21G31    29.79F HX 102
TOPEKA BILLARD MOSUNNY   92  72  51 SE15      29.86F HX  99
TOPEKA FORBES  SUNNY     93  72  50 S13       29.86F HX 101
$$



USA.gov is the U.S. government's official web portal to all federal, state and local government web resources and services.